sat.trackr.live / text

‹ back to catalog

STARLINK-30136

NORAD 56844 · 2023-079X

PAYLOAD ACTIVE UNKNOWN

§ Identity

Operator
Country
US
Launch date
2023-06-04
Launch site
AFETR
Launch vehicle
Mass (kg)
RCS (m²)

Purposes: comms

External: N2YO · Heavens-Above · Gunter

§ Orbital elements

Epoch: 2026-09-20T21:45:48.549024Z

Period
94.27 min
Inclination
43.0023°
Eccentricity
0.0001346
Mean motion
15.27579774 rev/d
Perigee alt
482.1 km
Apogee alt
484.0 km
Semi-major
6,861.2 km
B*
4.1901e-5
RAAN
84.5091°
Arg perigee
264.7923°
Mean anomaly
95.2775°
Rev number
18,274

§ Raw data

STARLINK-301361 56844U 23079X   26263.90681191  .00000891  00000+0  41901-4 0  99982 56844  43.0023  84.5091 0001346 264.7923  95.2775 15.27579774182746

JSON: /api/v1/satellites/56844 · /tle

For live sub-satellite position, see the globe view (requires WebGL).

§ Visibility from observer

Set your observer location to see the next 7 days of passes ≥ 10°. The values pass through the URL so the page stays shareable.

No JS? Fill the form by hand. The geolocation button needs JavaScript.